Location: Unspecified
(0.0000°N, 0.0000°E)
Time: 12:13:26
(UTC+00:00)

Explorer 11/Cluster Stage 4 - Pass Details

Date: 28 November 2019
Orbit: 467 x 1259 km, 28.8° (Epoch: 10 December)

Event Time Altitude Azimuth Distance (km) Brightness Sun altitude
Rises 10:55:40 0° 231° (SW) 3,360 9.9 65.2°
Reaches altitude 10° 10:58:32 10° 226° (SW) 2,282 9.2 65.5°
Maximum altitude 11:03:38 49° 152° (SSE) 825 8.6 66.1°
Drops below altitude 10° 11:07:45 10° 76° (ENE) 1,847 8.7 66.6°
Sets 11:09:52 0° 70° (ENE) 2,657 9.3 66.8°
